Regional Weather Roundup
Issued by NWS Charleston, SC

Current Version | Previous Version | Graphics & Text | Print | Product List | Glossary On
Versions: 1 2 3 4 5 6 7 8 9 10 11 12 13 14 15 16 17 18 19 20 21 22 23 24 25 26 27 28 29 30 31 32 33 34 35 36 37 38 39 40 41 42 43 44 45 46 47 48 49 50
000 ASUS42 KCHS 280026 RWRCHS REGIONAL WEATHER ROUNDUP NATIONAL WEATHER SERVICE CHARLESTON SC 800 PM EDT FRI MAR 27 2015 NOTE: "FAIR" INDICATES FEW OR NO CLOUDS BELOW 12,000 FEET WITH NO SIGNIFICANT WEATHER AND/OR OBSTRUCTIONS TO VISIBILITY. NOT ALL STATIONS ARE QUALITY CONTROLLED BY THE NATIONAL WEATHER SERVICE. USE DATA WITH CAUTION...ESPECIALLY DEWPOINT OBSERVATIONS. SCZ027-030-031-034>040-042>050-280100- ...SOUTHEAST SOUTH CAROLINA... CITY SKY/WX TMP DP RH WIND PRES REMARKS N CHARLESTON CLOUDY 52 49 89 N13G20 29.75R 6HR MIN TEMP: 52; 6HR MAX TEMP: 73; 6HR PCP: 0.13; WATERFRONT PRK N/A 54 N/A N/A N14G23 N/A MOUNT PLEASANT LGT RAIN 52 48 87 N7 29.76R PINOPOLIS N/A 54 48 82 VRB15 29.67R MONCKS CORNER CLOUDY 52 48 87 N12 29.78R SUMMERVILLE CLOUDY 52 50 93 N9 29.79R BEAUFORT MCAS CLOUDY 55 50 83 N15 29.77R 6HR MIN TEMP: 56; 6HR MAX TEMP: 74; 6HR PCP: 0.09; BEAUFORT ARPT MOCLDY 55 54 94 NW12 29.76R HILTON HEAD IS CLOUDY 63 46 55 N14 29.76 WALTERBORO CLOUDY 52 46 82 N8 29.79R ALLENDALE MOCLDY 54 48 82 N5G12 29.78R ...SOUTHERN MIDLANDS AND PEE DEE... CITY SKY/WX TMP DP RH WIND PRES REMARKS GEORGETOWN NOT AVBL KINGSTREE NOT AVBL ORANGEBURG CLOUDY 51 43 74 N12 29.79R 6HR MIN TEMP: 51; 6HR MAX TEMP: 60; 6HR PCP: 0.13; BARNWELL CLOUDY 54 46 76 NE7 29.80R AIKEN MOCLDY 48 39 71 NE9 29.83R MANNING HVY RAIN 46 39 76 N10 29.80R COLUMBIA MOCLDY 50 41 71 NE6 29.80R 6HR MIN TEMP: 50; 6HR MAX TEMP: 56; 6HR PCP: TRACE; SUMTER CLOUDY 48 43 81 N12 29.78R 6HR MIN TEMP: 48; 6HR MAX TEMP: 53; 6HR PCP: TRACE; FLORENCE CLOUDY 49 43 80 NE7 29.78R 6HR MIN TEMP: 49; 6HR MAX TEMP: 53; 6HR PCP: 0.28; MYRTLE BEACH CLOUDY 50 45 81 N13G22 29.75R N MYRTLE BEACH LGT RAIN 48 46 93 N9G22 29.74R FOG 6HR MIN TEMP: 48; 6HR MAX TEMP: 66; 6HR PCP: 0.32; $$ GAZ063-065-086>088-099>101-113>116-118-119-134>141-150-280100- ...SOUTHEAST GEORGIA... CITY SKY/WX TMP DP RH WIND PRES REMARKS SAVANNAH ARPT CLOUDY 61 39 44 NW14 29.77R 6HR MIN TEMP: 61; 6HR MAX TEMP: 73; 6HR PCP: 0.18; HUNTER AAF CLOUDY 61 42 50 W14 29.74R 6HR MIN TEMP: 61; 6HR MAX TEMP: 74; 6HR PCP: 0.27; FORT STEWART MOCLDY 59 45 60 W7 29.77R 6HR MIN TEMP: 59; 6HR MAX TEMP: 74; 6HR PCP: 0.16; STATESBORO MOCLDY 58 32 37 NW14G21 29.79R SYLVANIA MOCLDY 58 42 56 NW7 29.79R CLAXTON FAIR 57 41 54 W7 29.80R ...CSRA...CENTRAL AND FAR SOUTHEAST GEORGIA... CITY SKY/WX TMP DP RH WIND PRES REMARKS THOMSON CLEAR 56 30 36 NW6 29.86R AUGUSTA-BUSH CLOUDY 55 45 68 VRB6 29.79R 6HR MIN TEMP: 55; 6HR MAX TEMP: 69; AUGUSTA-DANIEL PTCLDY 55 44 66 NE9 29.79R SWAINSBORO FAIR 59 18 20 NW9 29.82R VIDALIA MOCLDY 59 36 41 W7 29.81R EASTMAN FAIR 58 35 41 W6 29.86R HAZLEHURST FAIR 55 41 58 CALM 29.81R ALMA MOCLDY 57 42 57 W5 29.82R 6HR MIN TEMP: 57; 6HR MAX TEMP: 65; WAYCROSS PTCLDY 59 49 68 W5 29.84R JESUP FAIR 59 48 67 W6 29.83R BAXLEY FAIR 57 45 62 W5 29.82R BRUNSWICK CLOUDY 59 43 55 W12G20 29.82R SAINT SIMONS CLOUDY 60 48 64 W9G17 29.79R 6HR MIN TEMP: 60; 6HR MAX TEMP: 76; 6HR PCP: 0.24; $$ SCZ027-028-034-036>038-045-046-048>050-GAZ119-141-280100- ...LAKE AND SUPPLEMENTAL COASTAL OBSERVATIONS... STATION/POSITION TIME TEMP WIND PRES WAVE SWELL AIR SEA DIR/SP/G HT/PER HT/PER/DIR (UTC) (F) (DEG/KT/KT) (MB) (FT/S) (FT/S/D) UPR LAKE MARION NOT AVBL WINYAH BAY 2345 50 340/ 7 1006.0R LAKE MURRAY 0000 49 340/ 1/ 4 1009.5R ACE BASIN NERRS NOT AVBL FORT PULASKI 2300 280/ 15/ 17 1006.9R SAPELO ISLAND 0000 60 280/ 10 1008.0R $$ ANZ835-935-AMZ111-154-330-350-352-354-370-450-454-472-280100- ...C-MAN AND BUOY OBSERVATIONS... STATION/POSITION TIME TEMP WIND PRES WAVE SWELL AIR SEA DIR/SP/G HT/PER HT/PER/DIR (UTC) (F) (DEG/KT/KT) (MB) (FT/S) (FT/S/D) BUOY 41004 2350 59 69 350/ 19/ 25 1004.5R 6/ 8 3/ 8 BUOY 41008 2350 61 61 280/ 17/ 21 1007.4R 3/ 4 2/110/ 8 FOLLY BEACH CMAN 0000 53 340/ 12/ 16 1007.1R CAPERS NEARSHORE 2300 55 10/ 17/ 19 N/A FRIPP NEARSHORE 2300 63 300/ 10/ 12 1005.6R STATION/POSITION TIME TEMP WIND PRES WAVE SWELL AIR SEA DIR/SP/G HT/PER HT/PER/DIR (UTC) (F) (DEG/KT/KT) (MB) (FT/S) (FT/S/D) 5E ST. MARYS GA 2321 62 N/A 2/ 8 FRYING PAN BUOY 2350 57 65 10/ 21/ 25 1004.1R 6/ 8 5/190/ 8 BUOY 41025 NOT AVBL CAPE LOOKOUT NC 0000 47 20/ 19/ 24 1005.5F BUOY 41002 2350 70 69 230/ 14/ 17 1006.3S 9/ 8 8/210/ 8 BUOY 41010 2320 66 76 250/ 14/ 17 1009.4R ST AUGUSTINE FL 0000 65 61 290/ 8/ 12 1009.8R $$

USA.gov is the U.S. government's official web portal to all federal, state and local government web resources and services.